BAW430A EGLL-EHAM

Flight info

Callsign BAW430A
Flight time 0h 38m
Altitude 29000
Route BPK Q295 BRAIN M197 REDFA
Aircraft A320/M-SDE3FGHIRWY/LB1

Departure

Time 2026-05-05 08:39
Airport London Heathrow Airport (EGLL)

Arrival

Time 2026-05-05 09:17
Airport Amsterdam Airport Schiphol (EHAM)
Time Latitude Longitude Altitude Speed Heading
2026-05-05 08:19 51.47417 -0.48953 90 ft 0 kts 180°
2026-05-05 08:30 51.47423 -0.48953 90 ft 4 kts 180°
2026-05-05 08:30 51.47450 -0.48952 89 ft 4 kts 183°
2026-05-05 08:30 51.47477 -0.48949 89 ft 4 kts 184°
2026-05-05 08:31 51.47504 -0.48948 87 ft 4 kts 175°
2026-05-05 08:31 51.47525 -0.48955 87 ft 0 kts 150°
2026-05-05 08:33 51.47517 -0.48947 88 ft 4 kts 146°
2026-05-05 08:33 51.47491 -0.48883 90 ft 10 kts 107°
2026-05-05 08:33 51.47486 -0.48747 89 ft 14 kts 90°
2026-05-05 08:34 51.47487 -0.48667 88 ft 6 kts 89°
2026-05-05 08:34 51.47488 -0.48589 87 ft 8 kts 89°
2026-05-05 08:34 51.47475 -0.48490 88 ft 9 kts 146°
2026-05-05 08:34 51.47398 -0.48474 86 ft 14 kts 178°
2026-05-05 08:35 51.47285 -0.48473 86 ft 18 kts 179°
2026-05-05 08:35 51.47158 -0.48470 88 ft 17 kts 180°
2026-05-05 08:35 51.47126 -0.48471 88 ft 6 kts 180°
2026-05-05 08:35 51.47067 -0.48472 86 ft 10 kts 180°
2026-05-05 08:36 51.46991 -0.48472 89 ft 12 kts 179°
2026-05-05 08:36 51.46897 -0.48469 88 ft 15 kts 179°
2026-05-05 08:36 51.46805 -0.48469 86 ft 9 kts 180°
2026-05-05 08:36 51.46736 -0.48469 86 ft 11 kts 179°
2026-05-05 08:37 51.46650 -0.48468 86 ft 14 kts 179°
2026-05-05 08:37 51.46547 -0.48466 87 ft 16 kts 179°
2026-05-05 08:37 51.46479 -0.48411 87 ft 7 kts 91°
2026-05-05 08:37 51.46479 -0.48386 87 ft 1 kts 90°
2026-05-05 08:38 51.46479 -0.48350 87 ft 8 kts 90°
2026-05-05 08:38 51.46481 -0.47918 87 ft 76 kts 89°
2026-05-05 08:38 51.46484 -0.46726 91 ft 135 kts 89°
2026-05-05 08:38 51.46493 -0.45003 275 ft 163 kts 89°
2026-05-05 08:39 51.46502 -0.43201 964 ft 163 kts 84°
2026-05-05 08:39 51.46638 -0.41411 1615 ft 165 kts 67°
2026-05-05 08:39 51.47294 -0.39789 1934 ft 186 kts 48°
2026-05-05 08:39 51.48171 -0.38088 2314 ft 210 kts 49°
2026-05-05 08:40 51.49154 -0.36162 2832 ft 235 kts 49°
2026-05-05 08:40 51.50214 -0.34069 3617 ft 246 kts 50°
2026-05-05 08:40 51.51301 -0.31901 4561 ft 251 kts 51°
2026-05-05 08:40 51.52383 -0.29644 5489 ft 257 kts 54°
2026-05-05 08:41 51.53185 -0.27038 6330 ft 265 kts 73°
2026-05-05 08:41 51.53623 -0.24119 7138 ft 272 kts 72°
2026-05-05 08:41 51.54578 -0.21519 7942 ft 275 kts 42°
2026-05-05 08:41 51.56212 -0.19932 8787 ft 277 kts 22°
2026-05-05 08:42 51.58009 -0.18720 9646 ft 282 kts 22°
2026-05-05 08:42 51.59866 -0.17634 10388 ft 289 kts 15°
2026-05-05 08:42 51.61874 -0.16703 10668 ft 312 kts 15°
2026-05-05 08:42 51.64040 -0.15712 10899 ft 334 kts 15°
2026-05-05 08:43 51.66313 -0.14676 11453 ft 343 kts 15°
2026-05-05 08:43 51.68626 -0.13616 12133 ft 348 kts 15°
2026-05-05 08:43 51.70908 -0.12250 12835 ft 352 kts 28°
2026-05-05 08:43 51.72907 -0.09957 13568 ft 356 kts 44°
2026-05-05 08:44 51.74461 -0.06904 14227 ft 360 kts 58°
2026-05-05 08:44 51.75491 -0.03216 14845 ft 363 kts 74°
2026-05-05 08:44 51.75951 0.00815 15443 ft 367 kts 83°
2026-05-05 08:44 51.76289 0.04919 16063 ft 370 kts 83°
2026-05-05 08:45 51.76624 0.09056 16669 ft 374 kts 83°
2026-05-05 08:45 51.76962 0.13245 17270 ft 378 kts 83°
2026-05-05 08:45 51.77305 0.17481 17883 ft 383 kts 83°
2026-05-05 08:45 51.77654 0.21763 18475 ft 387 kts 83°
2026-05-05 08:46 51.78007 0.26083 19038 ft 390 kts 84°
2026-05-05 08:46 51.78362 0.30455 19618 ft 394 kts 84°
2026-05-05 08:46 51.78720 0.34859 20231 ft 397 kts 85°
2026-05-05 08:46 51.79079 0.39303 20802 ft 401 kts 84°
2026-05-05 08:47 51.79438 0.43796 21358 ft 404 kts 84°
2026-05-05 08:47 51.79797 0.48314 21893 ft 407 kts 84°
2026-05-05 08:47 51.80154 0.52873 22396 ft 411 kts 85°
2026-05-05 08:47 51.80512 0.57476 22910 ft 414 kts 84°
2026-05-05 08:48 51.80872 0.62107 23407 ft 418 kts 85°
2026-05-05 08:48 51.81352 0.66775 23770 ft 425 kts 78°
2026-05-05 08:48 51.82073 0.71433 24152 ft 429 kts 78°
2026-05-05 08:48 51.82556 0.74538 24410 ft 431 kts 78°
2026-05-05 08:49 51.83285 0.79254 24790 ft 434 kts 78°
2026-05-05 08:49 51.84031 0.84008 25174 ft 438 kts 77°
2026-05-05 08:49 51.84851 0.88764 25547 ft 441 kts 75°
2026-05-05 08:49 51.85735 0.93550 25923 ft 444 kts 75°
2026-05-05 08:50 51.86645 0.98338 26267 ft 448 kts 74°
2026-05-05 08:50 51.87564 1.03178 26599 ft 452 kts 74°
2026-05-05 08:50 51.88478 1.08063 26947 ft 455 kts 75°
2026-05-05 08:50 51.89381 1.12993 27305 ft 458 kts 75°
2026-05-05 08:51 51.90274 1.17957 27652 ft 461 kts 75°
2026-05-05 08:51 51.91164 1.22966 28010 ft 464 kts 75°
2026-05-05 08:51 51.92056 1.28013 28357 ft 467 kts 75°
2026-05-05 08:51 51.92952 1.33085 28693 ft 470 kts 75°
2026-05-05 08:52 51.93853 1.38184 29018 ft 473 kts 75°
2026-05-05 08:52 51.94762 1.43329 29339 ft 476 kts 75°
2026-05-05 08:52 51.95663 1.48433 29646 ft 479 kts 75°
2026-05-05 08:52 51.96583 1.53633 29962 ft 480 kts 75°
2026-05-05 08:53 51.97514 1.58906 30359 ft 480 kts 75°
2026-05-05 08:53 51.98425 1.64099 30815 ft 478 kts 75°
2026-05-05 08:53 51.99329 1.69276 31290 ft 475 kts 75°
2026-05-05 08:53 52.00187 1.74430 31794 ft 472 kts 76°
2026-05-05 08:54 52.00987 1.79510 32284 ft 469 kts 77°
2026-05-05 08:54 52.01762 1.84621 32792 ft 466 kts 77°
2026-05-05 08:54 52.02524 1.89717 32896 ft 461 kts 77°
2026-05-05 08:54 52.03285 1.94810 31622 ft 470 kts 77°
2026-05-05 08:55 52.04076 2.00053 30171 ft 485 kts 76°
2026-05-05 08:55 52.04896 2.05436 28815 ft 492 kts 76°
2026-05-05 08:55 52.05718 2.10800 28038 ft 486 kts 77°
2026-05-05 08:55 52.06530 2.16090 27341 ft 479 kts 77°
2026-05-05 08:56 52.07331 2.21312 26647 ft 473 kts 77°
2026-05-05 08:56 52.08119 2.26473 25961 ft 467 kts 77°
2026-05-05 08:56 52.08889 2.31560 25285 ft 462 kts 77°
2026-05-05 08:56 52.09648 2.36611 24614 ft 457 kts 78°
2026-05-05 08:57 52.10394 2.41610 23948 ft 452 kts 78°
2026-05-05 08:57 52.11177 2.46545 23235 ft 449 kts 73°
2026-05-05 08:57 52.12374 2.51205 22662 ft 443 kts 63°
2026-05-05 08:57 52.13904 2.55462 22319 ft 432 kts 60°
2026-05-05 08:58 52.15425 2.59637 21888 ft 426 kts 60°
2026-05-05 08:58 52.16921 2.63774 21485 ft 422 kts 60°
2026-05-05 08:58 52.18400 2.67877 21078 ft 420 kts 60°
2026-05-05 08:58 52.19850 2.71908 20683 ft 416 kts 60°
2026-05-05 08:59 52.21308 2.75964 20281 ft 414 kts 60°
2026-05-05 08:59 52.22758 2.80004 19887 ft 410 kts 60°
2026-05-05 08:59 52.24192 2.84000 19490 ft 408 kts 60°
2026-05-05 08:59 52.25621 2.87987 19104 ft 406 kts 59°
2026-05-05 09:00 52.27041 2.91954 18712 ft 404 kts 59°
2026-05-05 09:00 52.28454 2.95906 18328 ft 402 kts 59°
2026-05-05 09:00 52.29855 2.99831 17902 ft 399 kts 59°
2026-05-05 09:00 52.31252 3.03753 17516 ft 398 kts 59°
2026-05-05 09:01 52.32634 3.07643 17134 ft 394 kts 59°
2026-05-05 09:01 52.34007 3.11511 16761 ft 392 kts 59°
2026-05-05 09:01 52.35368 3.15354 16385 ft 388 kts 59°
2026-05-05 09:01 52.36719 3.19179 16015 ft 388 kts 59°
2026-05-05 09:02 52.38057 3.22972 15647 ft 384 kts 59°
2026-05-05 09:02 52.39399 3.26767 15268 ft 384 kts 59°
2026-05-05 09:02 52.40732 3.30543 14905 ft 380 kts 59°
2026-05-05 09:02 52.42047 3.34275 14546 ft 378 kts 59°
2026-05-05 09:03 52.43356 3.37998 14177 ft 376 kts 59°
2026-05-05 09:03 52.44568 3.41772 13818 ft 374 kts 66°
2026-05-05 09:03 52.45342 3.45831 13427 ft 373 kts 76°
2026-05-05 09:03 52.45923 3.49957 13065 ft 369 kts 76°
2026-05-05 09:04 52.46505 3.54044 12708 ft 365 kts 76°
2026-05-05 09:04 52.47082 3.58050 12363 ft 356 kts 76°
2026-05-05 09:04 52.47643 3.61934 12005 ft 341 kts 76°
2026-05-05 09:04 52.48169 3.65614 11689 ft 322 kts 76°
2026-05-05 09:05 52.48664 3.69106 11388 ft 308 kts 76°
2026-05-05 09:05 52.49144 3.72511 11087 ft 304 kts 75°
2026-05-05 09:05 52.49620 3.75882 10787 ft 301 kts 76°
2026-05-05 09:05 52.50086 3.79202 10658 ft 296 kts 76°
2026-05-05 09:06 52.50548 3.82485 10521 ft 295 kts 76°
2026-05-05 09:06 52.51013 3.85772 10410 ft 295 kts 76°
2026-05-05 09:06 52.51478 3.89045 10280 ft 293 kts 76°
2026-05-05 09:06 52.51903 3.92265 10149 ft 293 kts 82°
2026-05-05 09:07 52.51873 3.95605 10023 ft 294 kts 100°
2026-05-05 09:07 52.51268 3.98793 9694 ft 295 kts 116°
2026-05-05 09:07 52.50100 4.01609 9247 ft 295 kts 131°
2026-05-05 09:07 52.48787 4.04150 8837 ft 296 kts 130°
2026-05-05 09:08 52.47463 4.06732 8436 ft 296 kts 130°
2026-05-05 09:08 52.46140 4.09319 8030 ft 296 kts 130°
2026-05-05 09:08 52.44821 4.11911 7623 ft 295 kts 130°
2026-05-05 09:08 52.43531 4.14456 7225 ft 284 kts 130°
2026-05-05 09:09 52.42292 4.16898 6844 ft 273 kts 130°
2026-05-05 09:09 52.41099 4.19244 6477 ft 264 kts 130°
2026-05-05 09:09 52.39934 4.21533 6097 ft 260 kts 130°
2026-05-05 09:09 52.38784 4.23788 5739 ft 254 kts 129°
2026-05-05 09:10 52.37670 4.25961 5402 ft 246 kts 129°
2026-05-05 09:10 52.36569 4.28106 5067 ft 247 kts 129°
2026-05-05 09:10 52.35465 4.30259 4722 ft 247 kts 128°
2026-05-05 09:10 52.34361 4.32421 4374 ft 248 kts 127°
2026-05-05 09:11 52.33254 4.34575 4039 ft 248 kts 128°
2026-05-05 09:11 52.32147 4.36731 3732 ft 246 kts 127°
2026-05-05 09:11 52.31047 4.38868 3456 ft 245 kts 126°
2026-05-05 09:11 52.29951 4.40986 3149 ft 242 kts 127°
2026-05-05 09:12 52.28889 4.43030 3050 ft 230 kts 126°
2026-05-05 09:12 52.27872 4.44988 2965 ft 223 kts 126°
2026-05-05 09:12 52.26879 4.46908 2866 ft 220 kts 125°
2026-05-05 09:12 52.25904 4.48796 2771 ft 213 kts 125°
2026-05-05 09:13 52.24971 4.50602 2678 ft 208 kts 126°
2026-05-05 09:13 52.24049 4.52394 2591 ft 206 kts 124°
2026-05-05 09:13 52.23311 4.54362 2480 ft 200 kts 105°
2026-05-05 09:13 52.23043 4.56520 2338 ft 191 kts 87°
2026-05-05 09:14 52.23220 4.58585 2149 ft 179 kts 69°
2026-05-05 09:14 52.23757 4.60369 1945 ft 173 kts 56°
2026-05-05 09:14 52.24379 4.61973 1728 ft 161 kts 56°
2026-05-05 09:14 52.24926 4.63393 1502 ft 139 kts 56°
2026-05-05 09:15 52.25424 4.64680 1319 ft 130 kts 56°
2026-05-05 09:15 52.25904 4.65923 1135 ft 127 kts 56°
2026-05-05 09:15 52.26371 4.67133 968 ft 127 kts 57°
2026-05-05 09:15 52.26850 4.68373 786 ft 129 kts 57°
2026-05-05 09:16 52.27325 4.69606 610 ft 130 kts 56°
2026-05-05 09:16 52.27803 4.70848 419 ft 127 kts 56°
2026-05-05 09:16 52.28278 4.72074 286 ft 130 kts 54°
2026-05-05 09:16 52.28754 4.73295 134 ft 128 kts 55°
2026-05-05 09:17 52.29210 4.74506 8 ft 116 kts 57°
2026-05-05 09:17 52.29559 4.75409 -2 ft 70 kts 58°
2026-05-05 09:17 52.29748 4.75901 -2 ft 44 kts 57°
2026-05-05 09:17 52.29911 4.76319 -4 ft 43 kts 57°
2026-05-05 09:18 52.30042 4.76550 -2 ft 22 kts 28°
2026-05-05 09:18 52.30183 4.76672 -1 ft 24 kts 28°
2026-05-05 09:18 52.30287 4.76768 -1 ft 17 kts 40°
2026-05-05 09:18 52.30357 4.76940 -1 ft 20 kts 57°
2026-05-05 09:19 52.30434 4.77139 -1 ft 19 kts 60°
2026-05-05 09:19 52.30524 4.77112 -1 ft 10 kts 327°
2026-05-05 09:19 52.30564 4.77070 -1 ft 8 kts 328°
2026-05-05 09:19 52.30621 4.77013 -1 ft 6 kts 328°
2026-05-05 09:20 52.30629 4.77005 -1 ft 2 kts 328°
2026-05-05 09:20 52.30649 4.76982 -1 ft 5 kts 321°
2026-05-05 09:20 52.30657 4.76953 -1 ft 1 kts 287°
2026-05-05 09:20 52.30668 4.76935 -1 ft 3 kts 331°
2026-05-05 09:21 52.30701 4.76944 -1 ft 7 kts 26°
2026-05-05 09:21 52.30714 4.76958 -1 ft 3 kts 32°
2026-05-05 09:21 52.30715 4.76959 -1 ft 0 kts 33°